Location: Newark
(35.2672°N, 80.7344°W)
Time: 01:10:35
(UTC+00:00)

Tiros 1 - Pass Details

Date: 22 January 2020
Orbit: 631 x 664 km, 48.4° (Epoch: 19 February)

Event Time Altitude Azimuth Distance (km) Brightness Sun altitude
Rises 19:33:08 0° 257° (WSW) 2,935 11.1 28.3°
Reaches altitude 10° 19:35:37 10° 266° (W) 2,034 10.3 28.0°
Maximum altitude 19:39:55 36° 333° (NNW) 1,036 8.2 27.5°
Drops below altitude 10° 19:44:18 10° 40° (NE) 2,060 9.3 27.0°
Sets 19:46:50 0° 49° (NE) 2,978 10.0 26.7°
